• Join FlightAware (Why Join?)
  • Login
  • US Flag 
11:45PM EDT


 

Airport Tracker/Info


-or-


 

Live Flight TrackerFlight Track Log ✈ GGN7283 ✈ 20-Aug-2013 ✈ KALB - CYYZ

Flight Track Log - Related Links

Times and Time Zones

All times are in EDT time to prevent confusion due to time zone crossing. See the GGN7283 flight status page for this flight to view local times or setup timezone preferences in your user account.

Time Position Orientation Groundspeed Altitude Reporting Facility
EDT Latitude Longitude Course Direction KTS MPH feet Rate Location/Type
05:22PM 42.8006 -73.8267 269° West 179 206 2,200  Level Boston Center
05:23PM 42.8000 -73.8606 269° West 193 222 2,900 1,140 Climbing Boston Center
05:24PM 42.8033 -73.9286 274° West 198 228 4,000 1,080 Climbing Boston Center
05:25PM 42.8189 -74.0053 285° West 202 232 5,200 1,320 Climbing Boston Center
05:26PM 42.8283 -74.0878 279° West 197 227 6,800 1,500 Climbing Boston Center
05:27PM 42.8294 -74.1528 271° West 197 227 8,300 1,440 Climbing Boston Center
05:28PM 42.8322 -74.2350 273° West 197 227 9,800 1,440 Climbing Boston Center
05:29PM 42.8333 -74.3031 271° West 197 227 11,200 1,500 Climbing Boston Center
05:30PM 42.8361 -74.3825 273° West 197 227 12,800 1,500 Climbing Boston Center
05:31PM 42.8392 -74.4478 274° West 197 227 14,300 1,440 Climbing Boston Center
05:32PM 42.8419 -74.5269 273° West 197 227 15,800 1,380 Climbing Boston Center
05:33PM 42.8467 -74.5981 275° West 202 232 17,100 1,200 Climbing Boston Center
05:34PM 42.8514 -74.6831 274° West 207 238 18,200 1,080 Climbing Boston Center
05:35PM 42.8517 -74.7681 270° West 218 251 19,300 780 Climbing Boston Center
05:36PM 42.8547 -74.8333 274° West 218 251 19,800 300 Climbing Boston Center
05:37PM 42.8586 -74.9356 273° West 225 259 20,000  Climbing Boston Center
05:38PM 42.8628 -75.0319 273° West 245 282 19,900 -60 Descending Boston Center
05:39PM 42.8647 -75.1256 272° West 256 295 19,900  Level Boston Center
05:40PM 42.8686 -75.2222 273° West 256 295 19,900  Level Boston Center
05:41PM 42.8725 -75.3186 273° West 256 295 19,900  Level Boston Center
05:42PM 42.8764 -75.4153 273° West 256 295 19,900  Level Boston Center
05:43PM 42.8781 -75.5089 271° West 256 295 19,900  Level Boston Center
05:44PM 42.8794 -75.6081 271° West 256 295 19,900  Level Boston Center
05:45PM 42.8831 -75.7017 273° West 251 289 19,900  Level Boston Center
05:46PM 42.8844 -75.7983 271° West 256 295 19,900  Level Boston Center
05:47PM 42.8897 -75.8978 274° West 256 295 19,900  Level Boston Center
05:48PM 42.8892 -75.9856 270° West 251 289 19,900  Level Boston Center
05:49PM 42.8942 -76.0881 274° West 256 295 19,900  Level Boston Center
05:50PM 42.8953 -76.1844 271° West 256 295 19,900  Level Boston Center
05:52PM 42.8833 -76.3500 264° West 270 311 19,900  Level Toronto Center
05:53PM 42.8833 -76.4500 270° West 240 276 20,000  Climbing Toronto Center
05:54PM 42.8833 -76.5333 270° West 250 288 19,900 -60 Descending Toronto Center
05:55PM 42.8833 -76.6500 270° West 260 299 19,900  Level Toronto Center
05:56PM 42.9000 -76.7500 283° West 260 299 19,900  Level Toronto Center
05:57PM 42.9000 -76.8333 270° West 260 299 19,900  Level Toronto Center
05:58PM 42.9000 -76.9500 270° West 260 299 19,900  Level Toronto Center
05:59PM 42.9000 -77.0333 270° West 260 299 19,900  Level Toronto Center
06:00PM 42.9000 -77.1333 270° West 260 299 19,900  Level Toronto Center
06:01PM 42.9000 -77.2167 270° West 260 299 20,000  Climbing Toronto Center
06:02PM 42.9000 -77.3333 270° West 260 299 19,900 -60 Descending Toronto Center
06:03PM 42.9167 -77.4333 283° West 260 299 19,900  Level Toronto Center
06:04PM 42.9167 -77.5333 270° West 260 299 19,900  Level Toronto Center
06:05PM 42.9167 -77.6333 270° West 260 299 20,000  Climbing Toronto Center
06:06PM 42.9428 -77.7669 285° West 257 296 19,900  Descending Cleveland Center
06:07PM 42.9658 -77.8567 289° West 252 290 20,000 -480 Climbing Cleveland Center
06:08PM 42.9889 -77.9492 289° West 257 296 19,000 -1,140 Descending Cleveland Center
06:09PM 43.0142 -78.0561 288° West 263 303 17,800 -1,200 Descending Cleveland Center
06:10PM 43.0350 -78.1519 287° West 263 303 16,600 -1,320 Descending Cleveland Center
06:11PM 43.0578 -78.2561 287° West 269 310 15,200 -1,260 Descending Cleveland Center
06:12PM 43.0786 -78.3575 286° West 274 315 14,200 -1,080 Descending Cleveland Center
06:13PM 43.1014 -78.4564 288° West 274 315 13,100 -1,080 Descending Cleveland Center
06:14PM 43.1239 -78.5522 288° West 274 315 12,100 -1,020 Descending Cleveland Center
06:15PM 43.1333 -78.5833 293° West 270 311 11,500 -720 Descending Toronto Center
06:16PM 43.1500 -78.7000 281° West 270 311 11,000 -300 Descending Toronto Center
06:17PM 43.1667 -78.7833 285° West 260 299 10,900 -60 Descending Toronto Center
06:18PM 43.1833 -78.8833 283° West 250 288 10,900  Level Toronto Center
06:19PM 43.2167 -78.9667 299° West 250 288 10,900  Level Toronto Center
06:20PM 43.2333 -79.0667 283° West 250 288 10,900  Level Toronto Center
06:21PM 43.2500 -79.1500 285° West 250 288 10,900 -480 Level Toronto Center
06:22PM 43.2667 -79.2500 283° West 260 299 10,000 -960 Descending Toronto Center
06:23PM 43.3000 -79.3333 299° West 260 299 9,000 -540 Descending Toronto Center
06:24PM 43.3667 -79.3833 331° Northwest 260 299 9,000  Level Toronto Center
06:25PM 43.4167 -79.4333 324° Northwest 260 299 9,000 -180 Level Toronto Center
06:26PM 43.4833 -79.4667 340° North 250 288 8,700 -600 Descending Toronto Center
06:27PM 43.5500 -79.5000 340° North 260 299 7,800 -1,020 Descending Toronto Center
06:28PM 43.6167 -79.4667 20° North 260 299 6,700 -1,080 Descending Toronto Center
06:29PM 43.6667 -79.4000 44° Northeast 250 288 5,700 -960 Descending Toronto Center
06:30PM 43.7167 -79.3500 36° Northeast 240 276 4,800 -900 Descending Toronto Center
06:31PM 43.7500 -79.2833 55° Northeast 230 265 4,000 -780 Descending Toronto Center
06:32PM 43.8167 -79.2833 360° North 220 253 3,300 -600 Descending Toronto Center
06:33PM 43.8167 -79.3500 270° West 190 219 2,900 -240 Descending Toronto Center
06:34PM 43.7833 -79.4333 241° Southwest 190 219 2,900 -120 Level Toronto Center
06:35PM 43.7500 -79.4667 216° Southwest 170 196 2,700 -600 Descending Toronto Center
06:36PM 43.7167 -79.5167 227° Southwest 170 196 1,700 -900 Descending Toronto Center
06:37PM 43.6833 -79.5667 227° Southwest 140 161 1,000 -600 Descending Toronto Center
06:38PM 43.6667 -79.5833 216° Southwest 120 138 500 -540 Descending Toronto Center